Temperature
17 17 17 17 17 17 17 17 17 17 17 17 17 16 16 16 15 15 15 15 14 14 14 14 14 14 14 14 14 14 14 15 14 16 16 16 16 16 15 16 16 16 16
17 17 17 17 17 17 17 17 17 17 17 17 17 16 16 15 15 15 15 15 14 14 14 14 14 13 13 13 13 13 14 14 14 15 17 17 17 15 16 15 15 15 16
18 17 17 17 17 17 17 17 17 17 17 17 17 16 16 16 15 15 15 15 14 14 14 14 13 13 13 13 13 13 13 14 14 14 15 17 19 17 16 15 15 15 15
18 18 17 17 17 17 17 17 17 17 17 17 17 16 16 16 16 15 15 15 14 14 14 14 13 13 13 13 13 13 13 13 15 14 14 14 15 16 17 16 15 15 15
19 18 18 18 18 18 18 17 18 18 18 17 17 17 16 16 16 16 15 15 14 14 14 14 13 13 13 13 13 13 13 13 14 14 14 14 14 15 16 17 16 15 15
19 19 18 18 18 18 17 17 18 18 18 17 17 17 16 16 16 16 16 15 15 14 14 14 14 13 13 13 13 12 13 13 13 13 14 14 15 15 15 16 16 16 15
20 19 19 18 18 18 17 17 17 18 18 18 18 17 17 17 16 16 16 16 15 15 14 14 14 13 13 13 13 13 12 12 12 12 13 13 14 14 14 15 15 15 15
21 20 19 19 18 18 18 18 18 18 18 18 18 18 18 17 17 16 16 16 16 15 15 15 14 14 13 13 13 13 12 12 12 12 12 12 13 13 13 14 14 15 16
22 21 20 19 19 19 18 18 18 18 18 18 18 18 18 18 17 17 17 16 16 15 15 15 15 14 14 14 13 13 12 12 12 12 12 12 13 12 13 13 13 14 15
22 22 21 20 20 19 19 19 18 19 19 19 19 18 19 18 18 17 17 17 16 16 16 15 15 15 14 14 14 13 13 12 12 12 12 12 12 12 12 12 12 13 13
23 23 22 21 21 20 20 19 19 19 19 19 19 19 19 19 18 18 18 17 17 17 17 16 16 15 15 15 15 13 13 13 13 12 12 12 12 12 12 12 12 12 12
24 23 23 22 21 21 20 20 20 19 19 19 19 19 19 19 19 18 18 18 18 17 17 17 16 16 15 15 15 15 14 14 13 13 12 12 12 12 12 12 12 12 12
23 23 23 22 22 21 21 21 20 20 20 19 19 20 19 19 19 19 19 18 18 18 17 17 17 17 16 16 16 15 15 15 14 14 13 13 12 12 12 12 12 12 12
22 22 22 21 21 21 21 20 20 20 20 19 19 19 20 19 19 19 19 19 18 18 18 17 17 17 17 16 16 16 16 15 15 14 14 14 13 13 13 12 12 12 12
21 21 21 20 20 20 20 20 19 19 19 19 19 19 19 19 19 19 19 19 18 18 18 18 17 17 17 16 16 16 15 15 15 15 15 14 14 14 13 13 12 12 11
19 19 19 19 19 19 19 19 19 19 19 19 19 18 18 18 18 18 18 18 18 18 18 17 17 17 16 16 16 16 15 15 15 15 15 14 14 14 14 14 13 13 12
17 17 17 17 17 18 18 18 18 18 17 17 17 17 17 17 17 17 17 17 17 17 17 17 17 16 16 16 16 16 15 15 14 14 14 14 14 14 14 14 14 14 13
16 16 16 16 17 17 17 17 17 17 17 16 16 16 16 16 16 16 16 16 16 16 16 16 16 16 16 16 16 15 15 14 14 14 14 14 14 13 13 13 13 13 13
14 14 15 15 16 16 16 16 16 16 15 15 15 15 15 15 15 15 15 15 15 15 15 15 14 14 14 14 15 14 14 13 13 13 13 13 13 13 13 13 12 12 12
14 14 14 14 15 15 15 16 15 15 14 14 14 14 14 14 14 14 14 14 14 13 13 13 13 13 13 13 13 13 13 12 12 12 12 13 13 13 13 12 12 12 12
13 13 13 14 14 14 14 14 14 13 13 13 13 13 13 13 13 13 13 13 12 12 12 12 12 12 12 12 12 12 11 11 11 11 12 12 12 12 12 12 11 11 11
13 13 13 12 12 13 13 13 12 12 12 12 12 12 12 12 11 11 11 11 11 11 11 11 11 11 11 11 10 10 10 10 10 10 10 11 11 11 11 11 11 11 11
13 13 12 12 11 11 12 12 11 11 10 11 10 10 10 10 10 10 10 10 10 10 10 10 10 10 10 10 9 9 9 9 9 9 9 9 9 10 10 10 10 10 10
12 12 12 12 11 11 10 10 10 10 10 10 10 10 10 10 10 10 10 10 10 10 9 9 9 9 9 9 8 8 8 8 8 8 8 8 9 9 9 9 9 9 9
12 12 11 11 11 10 10 10 10 10 10 10 10 10 10 10 9 9 9 9 8 8 8 8 8 8 8 7 7 7 6 6 6 7 7 7 8 8 9 9 9 9 9
12 11 11 11 10 10 10 10 9 9 9 10 10 10 10 10 9 9 9 9 8 8 7 7 7 7 6 6 6 6 6 6 6 6 6 7 7 8 8 8 9 9 9
Wind_Speed
10 9 10 9 9 9 10 11 11 11 10 8 8 7 7 6 5 5 5 3 2 3 2 3 3 2 3 3 2 2 0 1 2 4 4 4 3 2 2 3 3 3 4
11 11 11 11 11 11 11 11 11 11 11 8 6 6 5 5 5 4 5 4 3 2 2 2 2 3 2 2 2 2 2 1 1 3 3 4 4 3 1 2 1 1 2
13 13 13 13 12 12 12 11 11 11 10 10 7 6 5 5 5 6 6 5 5 3 1 1 2 1 1 3 2 2 2 1 1 2 3 3 2 3 4 1 1 0 1
13 13 14 14 14 13 12 11 11 11 11 11 10 10 7 6 5 5 5 6 6 5 4 3 2 0 1 2 0 3 2 2 0 1 1 3 4 3 3 5 3 1 0
14 14 14 14 14 13 12 11 11 12 11 11 10 10 8 6 5 5 5 6 6 7 6 5 4 3 1 1 2 1 2 1 2 1 0 0 1 4 4 2 2 3 2
14 14 13 13 13 13 12 12 12 12 12 12 11 11 9 7 6 6 6 7 6 6 7 7 6 5 3 2 2 1 1 1 2 2 1 2 2 2 3 4 5 4 3
14 14 14 15 15 15 14 14 14 13 13 13 13 12 11 10 9 8 7 6 6 6 7 7 7 6 5 4 3 3 1 2 1 2 2 2 2 3 4 5 5 5 5
14 14 15 15 15 16 16 16 15 14 14 14 13 12 12 10 9 9 7 7 6 6 6 8 8 8 7 6 5 5 4 3 4 4 3 4 3 3 4 5 6 6 6
15 15 15 16 16 16 16 16 16 15 15 15 14 13 13 12 10 8 9 8 7 6 8 8 9 9 9 8 7 6 5 5 6 6 6 6 4 5 5 5 6 7 8
14 15 15 16 16 16 16 16 16 16 15 15 14 12 13 13 12 11 10 9 8 8 8 9 10 10 9 9 9 8 7 7 7 6 6 6 7 5 6 6 6 7 8
15 15 15 15 16 15 16 16 16 16 15 15 14 13 13 13 12 12 11 11 10 10 10 10 10 10 10 10 10 10 8 9 9 9 9 9 9 7 7 7 7 8 8
13 14 15 15 15 15 15 16 16 16 15 15 14 14 13 12 13 13 12 12 11 11 11 11 11 11 11 11 11 11 11 11 11 11 10 11 9 10 10 8 9 9 9
11 12 14 14 15 15 15 15 15 16 15 14 14 13 13 13 13 13 12 12 12 11 11 11 12 12 12 12 12 12 12 12 12 12 12 12 11 11 10 10 10 9 10
7 9 11 11 12 12 12 13 13 13 13 13 13 13 13 13 12 12 12 12 12 12 12 12 12 12 12 13 13 13 13 13 13 13 13 13 13 13 13 11 12 11 11
4 4 6 7 8 8 8 9 9 9 10 10 11 11 10 10 10 10 10 11 11 12 12 12 12 13 12 12 13 13 13 13 14 14 14 15 14 14 12 12 12 12 12
5 4 3 2 2 3 4 5 5 6 7 8 8 7 7 7 8 9 9 9 10 10 11 12 12 13 12 10 11 12 13 13 14 15 15 15 15 16 17 17 16 15 15
9 9 8 7 5 4 2 2 2 1 2 3 3 4 4 5 6 7 7 8 8 9 10 11 12 13 13 10 12 14 14 15 15 15 15 14 15 16 16 18 21 21 21
12 12 11 10 10 9 8 6 6 5 4 3 1 1 1 2 2 3 4 5 6 7 8 10 11 12 12 10 12 12 14 16 17 17 17 17 17 16 16 16 17 18 19
11 11 11 12 12 12 11 11 10 10 8 7 5 5 4 2 2 2 3 3 4 5 7 8 9 10 10 8 9 10 12 14 18 18 18 18 18 17 16 17 18 19 18
11 10 11 12 12 12 12 13 12 11 10 9 8 8 7 6 5 4 4 4 4 5 7 7 8 9 10 7 8 9 10 13 14 14 16 17 19 18 16 18 18 20 20
11 10 11 11 11 11 11 12 11 10 9 8 9 9 8 6 6 6 5 5 5 5 6 7 8 8 8 7 6 8 9 12 14 14 14 14 14 17 17 18 18 19 18
10 11 10 10 9 9 10 11 10 8 8 8 9 9 8 8 7 6 6 6 6 6 6 7 8 7 7 6 6 8 12 13 14 14 14 14 11 12 16 16 18 19 17
9 9 9 9 9 8 9 9 8 6 7 7 8 7 7 7 7 7 6 6 5 7 7 8 8 8 8 7 6 8 11 13 12 14 16 17 17 15 15 18 20 18 16
7 7 8 8 7 7 7 7 6 6 6 6 6 6 6 7 7 7 7 7 8 8 9 9 10 10 10 9 9 10 10 12 12 13 15 16 19 18 18 17 16 16 16
6 5 5 5 5 5 5 5 5 5 6 6 7 7 7 7 7 7 6 7 7 6 8 10 10 11 12 10 12 12 13 14 14 15 15 15 16 16 15 15 16 16 16
4 4 4 4 4 4 4 5 5 5 6 7 8 8 8 8 8 9 9 5 7 6 9 11 11 11 11 12 14 16 17 18 17 14 15 16 17 17 17 16 16 16 16
Wind_Direction
171 170 169 163 156 161 168 171 171 166 165 162 165 164 165 166 163 158 145 147 116 100 30 56 72 13 50 20 4 332 192 290 311 263 234 215 227 246 242 259 276 247 244
173 176 176 174 171 171 171 175 175 172 174 167 166 169 164 176 171 169 162 174 161 157 130 52 68 60 76 60 33 359 330 24 336 292 257 218 185 204 205 208 216 309 259
180 181 182 182 180 178 177 179 178 176 179 169 170 163 168 184 178 188 187 189 188 183 148 134 52 56 23 76 37 4 352 3 61 352 304 282 246 160 164 167 137 90 336
180 184 190 189 186 182 179 178 180 181 179 180 187 188 194 194 191 198 186 186 198 198 188 182 163 171 59 89 102 55 360 313 351 108 10 347 351 294 187 189 173 150 347
185 188 193 191 187 181 180 182 184 185 185 193 195 201 209 207 194 195 183 202 196 203 202 197 190 194 188 89 43 63 352 344 339 349 312 228 232 269 285 241 222 221 218
184 188 191 189 186 183 185 185 184 188 190 196 201 210 214 215 210 208 201 208 201 203 202 203 202 208 200 173 183 180 168 4 5 324 310 283 278 274 276 274 259 262 246
183 186 188 188 187 188 189 189 188 192 194 199 205 210 215 215 216 222 216 223 217 206 196 204 203 209 204 204 203 210 240 210 229 265 285 295 294 300 291 288 286 284 266
184 186 187 186 188 190 192 193 193 196 198 203 208 211 214 219 224 219 231 219 228 221 192 200 205 209 207 210 208 225 215 221 237 250 273 273 265 274 276 283 292 284 272
185 186 186 189 192 194 195 197 196 200 204 207 208 212 214 223 228 217 219 225 218 214 200 205 208 209 209 214 214 232 229 226 237 236 223 247 256 254 265 268 274 285 290
187 187 188 192 194 196 197 200 201 205 208 210 212 214 215 217 220 222 221 221 214 211 207 210 212 211 210 211 220 229 223 231 237 250 261 256 262 254 256 259 260 263 274
190 190 193 194 195 197 198 201 204 208 211 215 216 221 219 217 217 218 217 214 215 207 209 212 214 214 214 214 217 233 229 231 237 237 238 240 257 259 258 252 254 256 259
194 194 194 195 198 201 203 205 209 212 215 216 216 219 221 220 219 219 216 213 213 212 212 214 216 218 219 217 219 227 230 231 236 238 240 242 239 239 253 258 255 255 257
197 197 197 199 203 207 209 211 212 216 217 216 217 219 220 219 221 223 218 214 213 215 216 216 219 223 224 223 224 228 232 234 236 238 239 240 242 242 243 244 252 253 249
193 200 200 203 208 212 213 217 220 219 218 217 218 220 221 221 222 222 220 217 215 216 218 220 223 226 228 228 229 229 232 236 238 239 240 240 239 239 241 242 245 251 256
155 182 199 202 205 209 214 220 224 225 223 220 223 225 224 224 225 224 222 220 218 220 221 225 228 230 232 232 231 233 235 238 241 241 241 241 239 241 241 246 245 243 246
92 94 101 133 171 198 204 209 219 223 219 223 229 231 228 226 226 224 222 222 224 227 226 228 232 234 237 224 220 235 246 245 245 246 245 244 235 232 229 239 248 252 249
75 73 70 67 60 55 69 105 114 140 176 210 229 228 228 233 237 237 231 230 232 234 234 236 238 241 243 223 214 223 244 252 251 250 248 249 246 232 237 230 229 239 243
72 70 70 69 67 63 62 66 75 75 76 69 54 41 239 244 252 250 250 249 247 247 246 247 247 249 248 222 219 222 240 252 254 252 249 248 252 246 240 242 239 238 236
73 71 70 71 69 68 68 67 66 63 57 51 44 38 34 31 13 332 303 286 275 267 264 262 261 260 261 236 222 224 252 253 254 254 252 249 250 245 233 242 247 249 248
77 75 74 71 67 66 69 70 63 58 51 46 46 46 41 35 28 16 356 337 307 290 285 280 274 270 271 259 232 226 258 263 263 259 256 251 248 249 229 238 245 249 250
87 80 73 70 67 67 68 68 63 57 50 48 49 46 40 38 31 19 9 354 336 322 307 300 293 286 283 278 251 235 259 271 273 270 266 262 242 239 236 235 245 250 254
94 88 81 75 68 67 73 73 65 56 53 50 46 43 35 25 24 16 7 356 342 321 310 306 300 296 295 291 284 256 253 268 278 278 277 278 276 255 244 241 245 248 251
96 92 91 84 75 67 66 69 66 57 50 45 39 33 28 24 15 2 354 343 338 326 323 318 312 309 310 303 274 267 268 267 274 279 280 283 285 278 263 246 239 240 245
98 92 86 82 75 67 63 61 55 42 33 27 18 11 5 1 5 346 344 341 337 334 330 323 317 314 311 311 322 321 309 293 282 285 285 276 266 259 257 260 248 242 241
100 87 81 76 70 63 55 46 37 20 9 1 352 343 342 345 333 329 327 322 327 334 315 316 315 313 311 328 338 317 308 307 305 307 295 284 277 270 262 257 251 246 240
101 85 69 58 48 45 44 34 19 5 349 341 339 334 330 332 323 320 315 281 267 244 238 250 271 294 295 303 301 296 289 284 283 288 282 278 275 273 271 266 260 251 245
Height
1527 1529 1532 1536 1539 1542 1546 1549 1553 1556 1559 1561 1564 1566 1568 1569 1570 1571 1571 1571 1571 1570 1570 1571 1568 1569 1569 1568 1569 1569 1569 1569 1569 1570 1571 1571 1571 1571 1571 1572 1573 1573 1573
1525 1528 1531 1534 1538 1541 1544 1548 1552 1555 1558 1561 1563 1565 1568 1569 1570 1571 1570 1571 1570 1570 1570 1569 1570 1569 1568 1568 1568 1567 1569 1569 1568 1569 1570 1570 1571 1570 1571 1571 1571 1572 1572
1523 1526 1529 1533 1537 1540 1543 1547 1550 1554 1557 1560 1562 1565 1566 1568 1569 1570 1570 1570 1570 1570 1570 1569 1569 1568 1570 1569 1567 1567 1568 1569 1569 1568 1569 1569 1567 1569 1570 1570 1570 1570 1571
1522 1525 1528 1532 1535 1538 1542 1546 1549 1552 1555 1558 1562 1564 1566 1568 1569 1570 1570 1569 1569 1569 1569 1569 1568 1568 1569 1567 1568 1567 1567 1567 1569 1568 1568 1568 1568 1568 1568 1570 1570 1569 1569
1520 1523 1526 1530 1534 1537 1540 1544 1547 1550 1554 1557 1560 1562 1565 1567 1568 1568 1568 1568 1568 1568 1568 1568 1568 1567 1568 1567 1566 1566 1566 1567 1568 1569 1569 1568 1568 1569 1569 1568 1569 1569 1569
1518 1522 1525 1529 1532 1536 1539 1542 1545 1548 1552 1555 1558 1560 1563 1565 1566 1566 1567 1567 1567 1567 1567 1567 1566 1567 1567 1566 1566 1565 1566 1566 1566 1567 1568 1568 1568 1568 1568 1568 1567 1567 1567
1516 1520 1522 1525 1530 1534 1537 1541 1543 1546 1550 1553 1555 1558 1560 1562 1563 1565 1565 1566 1567 1566 1565 1565 1565 1566 1565 1565 1565 1564 1565 1565 1565 1565 1566 1567 1567 1567 1567 1567 1566 1565 1565
1514 1517 1520 1523 1527 1531 1535 1539 1541 1544 1547 1550 1553 1555 1557 1559 1561 1562 1563 1563 1564 1565 1564 1563 1563 1563 1563 1564 1563 1565 1564 1564 1564 1564 1564 1564 1565 1565 1565 1565 1565 1563 1563
1512 1515 1519 1522 1526 1529 1533 1536 1539 1541 1544 1547 1550 1552 1554 1556 1558 1559 1559 1561 1560 1561 1560 1560 1561 1561 1561 1561 1562 1563 1562 1562 1562 1563 1562 1562 1563 1562 1563 1563 1563 1563 1561
1510 1513 1517 1520 1524 1527 1530 1533 1536 1538 1541 1544 1547 1549 1550 1552 1554 1555 1556 1557 1557 1557 1557 1558 1558 1558 1559 1559 1559 1560 1560 1560 1560 1560 1560 1560 1561 1561 1560 1560 1559 1559 1559
1507 1511 1515 1518 1521 1525 1528 1530 1533 1536 1538 1541 1543 1545 1547 1548 1549 1551 1552 1553 1554 1554 1554 1555 1555 1555 1556 1556 1556 1557 1558 1557 1557 1557 1557 1556 1556 1557 1557 1557 1556 1556 1555
1505 1509 1512 1516 1519 1522 1525 1528 1530 1533 1535 1537 1539 1541 1542 1544 1545 1546 1547 1548 1549 1550 1551 1551 1551 1552 1553 1553 1553 1553 1554 1554 1554 1554 1553 1553 1553 1552 1552 1552 1552 1552 1551
1504 1507 1510 1513 1516 1519 1522 1525 1527 1530 1532 1534 1535 1536 1538 1539 1541 1542 1543 1544 1545 1546 1547 1547 1548 1548 1549 1549 1549 1549 1549 1549 1549 1549 1549 1548 1548 1547 1548 1547 1547 1547 1546
1503 1505 1508 1511 1513 1516 1519 1521 1524 1526 1528 1529 1530 1531 1533 1534 1536 1537 1538 1539 1540 1541 1542 1543 1543 1544 1544 1544 1545 1545 1545 1544 1544 1544 1543 1543 1543 1542 1542 1542 1541 1541 1541
1502 1504 1507 1509 1511 1513 1515 1517 1519 1521 1523 1524 1525 1526 1528 1529 1530 1532 1533 1534 1535 1536 1537 1537 1538 1538 1539 1539 1540 1540 1540 1539 1539 1538 1538 1537 1537 1536 1536 1536 1536 1536 1535
1502 1504 1505 1507 1509 1510 1512 1513 1515 1517 1518 1519 1520 1522 1523 1524 1525 1526 1527 1528 1529 1530 1531 1531 1532 1532 1533 1534 1533 1534 1534 1533 1533 1532 1531 1531 1530 1529 1529 1528 1528 1529 1528
1504 1504 1505 1506 1507 1508 1510 1510 1511 1513 1513 1514 1515 1517 1518 1519 1520 1521 1522 1522 1523 1524 1524 1525 1525 1525 1526 1526 1526 1527 1526 1526 1525 1524 1524 1523 1524 1522 1521 1520 1520 1519 1519
1506 1506 1507 1507 1507 1508 1509 1509 1510 1511 1511 1512 1513 1513 1513 1514 1515 1516 1516 1517 1517 1518 1518 1518 1518 1518 1518 1518 1518 1518 1518 1517 1516 1516 1515 1514 1514 1514 1514 1513 1512 1510 1510
1509 1509 1509 1509 1508 1508 1509 1510 1510 1510 1511 1511 1511 1510 1511 1511 1511 1511 1511 1511 1511 1511 1511 1511 1511 1511 1510 1510 1510 1510 1508 1507 1506 1506 1506 1505 1504 1504 1504 1504 1502 1502 1501
1512 1512 1512 1511 1510 1509 1509 1510 1511 1510 1512 1512 1510 1509 1508 1508 1507 1507 1506 1506 1506 1506 1506 1506 1505 1504 1503 1502 1501 1501 1499 1498 1498 1497 1496 1495 1495 1494 1494 1493 1492 1491 1492
1515 1514 1514 1513 1512 1511 1512 1511 1512 1512 1513 1512 1510 1508 1507 1506 1505 1504 1503 1502 1502 1501 1500 1500 1499 1497 1496 1495 1494 1493 1491 1490 1489 1487 1486 1486 1485 1484 1484 1483 1482 1481 1482
1517 1516 1515 1515 1514 1514 1514 1513 1513 1513 1513 1512 1510 1508 1506 1506 1505 1503 1501 1500 1499 1498 1497 1495 1494 1493 1491 1489 1487 1485 1484 1482 1479 1477 1477 1476 1474 1473 1472 1471 1470 1471 1471
1518 1518 1518 1517 1516 1516 1515 1514 1514 1514 1513 1512 1510 1508 1506 1505 1503 1501 1500 1499 1497 1496 1494 1492 1490 1488 1486 1483 1481 1478 1476 1473 1470 1468 1466 1464 1463 1461 1460 1459 1458 1459 1459
1520 1519 1519 1518 1518 1517 1516 1515 1515 1514 1513 1512 1510 1508 1506 1504 1502 1500 1499 1497 1495 1493 1491 1489 1486 1483 1481 1478 1475 1472 1469 1466 1463 1460 1456 1453 1451 1449 1447 1446 1446 1445 1445
1520 1520 1519 1519 1518 1518 1517 1516 1515 1513 1512 1511 1509 1507 1506 1503 1501 1499 1496 1494 1492 1489 1486 1484 1481 1478 1474 1472 1468 1464 1460 1457 1454 1450 1445 1443 1441 1439 1437 1435 1434 1434 1433
1520 1519 1519 1519 1518 1517 1516 1515 1514 1513 1511 1510 1508 1506 1504 1501 1499 1496 1493 1490 1487 1484 1480 1477 1474 1470 1467 1463 1460 1456 1453 1449 1445 1441 1436 1433 1431 1429 1427 1425 1423 1422 1421